Weather in Ingolstadt

Germany     48°45′46″N   11°25′30″E
temp.,
°C
wind,
m/s
gust,
m/s
humid.,
%
clouds,
%
prec.,
mm/h
press.,
hPa
HPBL,
m
12 may, wed
wed1223:00+10wsw61195100 1.4 1011589
02:00+10wsw51095100 1.8 1011551
05:00+10w4996100 0.8 1010642
08:00+10w4897100 3.3 1012555
11:00+10wnw4895100 1.1 1012618
14:00+10w4791100 1.4 1011609
17:00+10nw4893100 0.6 1011492
20:00+9wnw3794100 0.8 1011383
13 may, thu
thu1323:00+9w3796100 0.6 1011304
02:00+8w4796100 1.4 1009281
05:00+8w4895100 0.5 1008334
08:00+8w51096100 2.7 1008503
11:00+9wnw51094100 2.4 1008650
14:00+11nw5986100 3.3 1007840
17:00+12nnw4780100 0.1 1007825
20:00+10nw1288100 0.2 100728
14 may, fri
fri1423:00+8w4994100 0.9 1009384
02:00+6wsw41194100 0.9 1009362
05:00+6wsw3894100 0.0 1009200
08:00+8wsw5990100 0.0 1010472
11:00+12w567399 0.3 10091219
14:00+14wnw4561100 0.6 10091528
17:00+15wnw445880 0.1 10081579
20:00+11w367823 0.4 1009120
15 may, sat
sat1523:00+8wnw22905 0.0 101219
02:00+6w22925 0.0 101318
05:00+5wsw239480 0.0 101436
08:00+9wsw238549 0.0 1014248
11:00+12sw337539 0.0 1013644
14:00+14ssw3464100 0.3 10111260
17:00+16s245798 0.4 10091360
20:00+13sse0172100 0.6 100811
16 may, sun
sun1623:00+10wnw3482100 0.2 100882
02:00+8wsw2798100 5.3 1009334
05:00+10wsw71392100 2.1 1009821
08:00+10wsw599488 3.3 1010631
11:00+11wsw588437 0.9 1010898
14:00+15w7106232 1.9 10101896
17:00+16w614596 0.0 10092051
20:00+12ssw347573 0.0 100961